Change the Weather History Date:

Saturday, December 7, 2013

  Actual Average Record
Temperature  
Mean Temperature 1 °F 26 °F  
Max Temperature 8 °F 40 °F 69 °F (1991)
Min Temperature -7 °F 13 °F -15 °F (1978)
Degree Days  
Heating Degree Days 64 38  
Month to date heating degree days 326 263  
Since 1 July heating degree days 1811 1814  
Cooling Degree Days 0 0  
Month to date cooling degree days 0 0  
Year to date cooling degree days 998 768  
Moisture  
Dew Point -4 °F    
Average Humidity 72    
Maximum Humidity 83    
Minimum Humidity 60    
Precipitation  
Precipitation 0.06 in 0.02 in 0.35 in (1924)
Month to date precipitation 0.06 0.10  
Year to date precipitation 21.67 19.92  
Snow  
Snow 0.80 in 0.20 in 3.30 in (1924)
Month to date snowfall 0.9 1.0  
Since 1 July snowfall 4.0 7.2  
Snow Depth 0.00 in    
Sea Level Pressure  
Sea Level Pressure 30.42 in    
Wind  
Wind Speed 10 mph (SE)    
Max Wind Speed 17 mph    
Max Gust Speed 22 mph    
Visibility 6 miles    
Events Snow    
T = Trace of Precipitation, MM = Missing Value Source: NWS Daily Summary

Daily Weather History Graph

Daily Weather History Graph

Search for Another Location

Airport or City:

Trip Planner

Search our weather history database for the weather conditions in past years. The results will help you decide how hot, cold, wet, or windy it might be!

Date:

Astronomy

Dec. 07, 2013 Rise Set
Actual Time 7:54 AM CST 5:13 PM CST
Civil Twilight 7:23 AM CST 5:44 PM CST
Nautical Twilight 6:49 AM CST 6:19 PM CST
Astronomical Twilight 6:15 AM CST 6:52 PM CST
Moon 11:39 AM CST (12/7) 10:59 PM CST (12/7)
Length of Visible Light 10h 21m
Length of Day
9h 19m
Waxing Crescent, 29% of the Moon is Illuminated
Dec 7
Waxing Crescent
Dec 9
First Quarter
Dec 17
Full
Dec 25
Last Quarter
Jan 1
New

Hourly Weather History & Observations

Time (CST) Temp. Windchill Dew Point Humidity Pressure Visibility Wind Dir Wind Speed Gust Speed Precip Events Conditions
12:53 AM -5.1 °F -15.8 °F -11.9 °F 72% 30.70 in 10.0 mi ENE 4.6 mph - N/A   Clear
1:53 AM -7.1 °F - -11.9 °F 79% 30.69 in 10.0 mi Calm Calm - N/A   Clear
2:53 AM -6.0 °F -14.7 °F -11.9 °F 75% 30.68 in 10.0 mi East 3.5 mph - N/A   Clear
3:53 AM -6.0 °F -18.6 °F -11.9 °F 75% 30.68 in 10.0 mi ESE 5.8 mph - N/A   Clear
4:53 AM -6.0 °F -18.6 °F -11.9 °F 75% 30.67 in 10.0 mi East 5.8 mph - N/A   Clear
5:53 AM -5.1 °F -19.1 °F -11.0 °F 76% 30.68 in 10.0 mi East 6.9 mph - N/A   Clear
6:53 AM -2.9 °F -17.7 °F -9.9 °F 72% 30.68 in 10.0 mi SE 8.1 mph - N/A   Clear
7:53 AM -2.0 °F -16.6 °F -9.0 °F 72% 30.68 in 10.0 mi SE 8.1 mph - N/A   Mostly Cloudy
8:53 AM -0.9 °F -17.4 °F -8.0 °F 72% 30.68 in 10.0 mi SE 10.4 mph - N/A   Mostly Cloudy
9:53 AM 1.9 °F -12.9 °F -6.0 °F 69% 30.66 in 10.0 mi SE 9.2 mph - N/A   Mostly Cloudy
10:53 AM 5.0 °F -10.8 °F -6.0 °F 61% 30.64 in 10.0 mi SE 11.5 mph - N/A   Clear
11:53 AM 6.1 °F -12.2 °F -6.0 °F 58% 30.61 in 10.0 mi South 16.1 mph 20.7 mph N/A   Mostly Cloudy
12:53 PM 7.0 °F -9.1 °F -6.0 °F 55% 30.55 in 10.0 mi SSE 12.7 mph - N/A   Overcast
1:53 PM 7.0 °F -9.1 °F -2.0 °F 67% 30.51 in 2.0 mi SSE 12.7 mph - 0.00 in Snow Light Snow
1:57 PM 6.8 °F -10.0 °F -2.2 °F 67% 30.30 in 1.5 mi SSE 13.8 mph - 0.00 in Snow Light Snow
2:06 PM 6.8 °F -7.8 °F -0.4 °F 72% 30.29 in 1.2 mi SE 10.4 mph - 0.00 in Snow Light Snow
2:16 PM 6.8 °F -6.9 °F -0.4 °F 72% 30.28 in 1.8 mi SE 9.2 mph - 0.01 in Snow Light Snow
2:36 PM 6.8 °F -10.7 °F -2.2 °F 67% 30.26 in 3.0 mi SE 15.0 mph - 0.01 in Snow Light Snow
2:53 PM 6.1 °F -9.5 °F -2.0 °F 69% 30.46 in 10.0 mi SE 11.5 mph - 0.01 in   Overcast
3:53 PM 7.0 °F -6.6 °F -4.0 °F 61% 30.43 in 3.0 mi SSE 9.2 mph - 0.00 in Snow Light Snow
3:55 PM 6.8 °F -6.9 °F -4.0 °F 61% 30.23 in 2.5 mi SSE 9.2 mph - 0.00 in Snow Light Snow
4:12 PM 6.8 °F -7.8 °F -2.2 °F 67% 30.23 in 1.5 mi SE 10.4 mph - 0.00 in Snow Light Snow
4:19 PM 6.8 °F -8.6 °F -0.4 °F 72% 30.22 in 1.0 mi ESE 11.5 mph - 0.00 in Snow Light Snow
4:29 PM 6.8 °F -6.9 °F -0.4 °F 72% 30.22 in 0.8 mi SE 9.2 mph - 0.01 in Snow Light Snow
4:41 PM 6.8 °F -7.8 °F -0.4 °F 72% 30.22 in 1.2 mi SE 10.4 mph - 0.01 in Snow Light Snow
4:51 PM 6.8 °F -5.9 °F -0.4 °F 72% 30.22 in 1.5 mi SE 8.1 mph - 0.01 in Snow Light Snow
4:53 PM 6.1 °F -7.8 °F -0.0 °F 76% 30.43 in 1.2 mi SE 9.2 mph - 0.01 in Snow Light Snow
5:13 PM 6.8 °F -7.8 °F -0.4 °F 72% 30.21 in 1.8 mi SE 10.4 mph - 0.01 in Snow Light Snow
5:24 PM 6.8 °F -7.8 °F -2.2 °F 67% 30.21 in 2.5 mi SE 10.4 mph - 0.01 in Snow Light Snow
5:31 PM 5.0 °F -10.8 °F -2.2 °F 72% 30.21 in 2.5 mi SE 11.5 mph - 0.01 in Snow Light Snow
5:46 PM 5.0 °F -11.6 °F -2.2 °F 72% 30.20 in 4.0 mi ESE 12.7 mph - 0.01 in Snow Light Snow
5:53 PM 5.0 °F -10.0 °F -2.0 °F 73% 30.41 in 5.0 mi SE 10.4 mph - 0.01 in Snow Light Snow
6:53 PM 6.1 °F -7.8 °F -2.0 °F 69% 30.39 in 10.0 mi ESE 9.2 mph - 0.01 in   Overcast
7:53 PM 7.0 °F -9.8 °F -0.9 °F 70% 30.37 in 5.0 mi ESE 13.8 mph - 0.00 in Snow Light Snow
8:21 PM 6.8 °F -8.6 °F -0.4 °F 72% 30.17 in 2.5 mi SE 11.5 mph - 0.00 in Snow Light Snow
8:40 PM 6.8 °F -7.8 °F 1.4 °F 79% 30.17 in 1.8 mi SE 10.4 mph - 0.00 in Snow Light Snow
8:53 PM 7.0 °F -7.5 °F 1.9 °F 80% 30.36 in 1.5 mi SE 10.4 mph - 0.00 in Snow Light Snow
9:39 PM 6.8 °F -3.5 °F 3.2 °F 85% 30.15 in 2.0 mi SE 5.8 mph - 0.01 in Snow Light Snow
9:53 PM 7.0 °F -9.8 °F 1.9 °F 80% 30.32 in 3.0 mi SE 13.8 mph 20.7 mph 0.02 in Snow Light Snow
10:53 PM 8.1 °F -6.2 °F 1.9 °F 76% 30.29 in 6.0 mi SE 10.4 mph - 0.00 in Snow Light Snow
11:53 PM 8.1 °F -5.3 °F 1.9 °F 76% 30.27 in 10.0 mi SE 9.2 mph - 0.00 in   Overcast